Location: Azenweiler
(47.8027°N, 9.4096°E)
Time: 06:09:17
(UTC+00:00)

Nadezhda 4 Rocket - Pass Details

Date: 10 December 2025
Orbit: 948 x 992 km, 82.9° (Epoch: 13 January)

Event Time Altitude Azimuth Distance (km) Brightness Sun altitude
Rises 04:09:16 0° 186° (S) 3,690 7.0 -27.6°
Reaches altitude 10° 04:11:47 10° 186° (S) 2,743 6.3 -27.2°
Maximum altitude 04:18:06 89° 99° (E) 992 3.9 -26.2°
Drops below altitude 10° 04:24:24 10° 9° (N) 2,738 6.4 -25.1°
Sets 04:26:55 0° 10° (N) 3,683 7.1 -24.7°
